• Em Portugal
  • Lista de países
  • Para 7 dias
  • Temperatura da água
  • Mapas de satélite
  • Mapa do tempo
  • Widgets de tempo
  • user-avatar
    Iniciar Sessão

    Previsão horária em Redlino

    Hoje, 20 Outubro, Sábado

    Tempo Temperatura Precipitação Vento Pressão Humidade
    00:00 +8°C° 0 mm 2 m/s 766 mmHg 86%
    01:00 +8°C° 0 mm 2 m/s 766 mmHg 87%
    02:00 +8°C° 0 mm 2 m/s 766 mmHg 88%
    03:00 +8°C° 0 mm 2 m/s 766 mmHg 89%
    04:00 +7°C° 0 mm 2 m/s 766 mmHg 90%
    05:00 +7°C° 0 mm 3 m/s 766 mmHg 89%
    06:00 +7°C° 0 mm 3 m/s 766 mmHg 89%
    07:00 +7°C° 0 mm 4 m/s 766 mmHg 87%
    08:00 +7°C° 0.1 mm 4 m/s 766 mmHg 83%
    09:00 +8°C° 0.1 mm 4 m/s 766 mmHg 78%
    10:00 +10°C° 0.1 mm 4 m/s 766 mmHg 73%
    11:00 +11°C° 0.1 mm 4 m/s 766 mmHg 71%
    12:00 +10°C° 0.1 mm 5 m/s 766 mmHg 68%
    13:00 +12°C° 0 mm 5 m/s 767 mmHg 66%
    14:00 +10°C° 0.2 mm 5 m/s 767 mmHg 70%
    15:00 +10°C° 0.2 mm 5 m/s 767 mmHg 73%
    16:00 +9°C° 0.2 mm 5 m/s 766 mmHg 77%
    17:00 +9°C° 0.2 mm 5 m/s 766 mmHg 80%
    18:00 +10°C° 0.2 mm 4 m/s 766 mmHg 83%
    19:00 +10°C° 0.2 mm 4 m/s 766 mmHg 85%
    20:00 +8°C° 0.1 mm 4 m/s 766 mmHg 87%
    21:00 +9°C° 0.1 mm 3 m/s 767 mmHg 89%
    22:00 +9°C° 0.1 mm 3 m/s 767 mmHg 90%
    23:00 +9°C° 0 mm 3 m/s 767 mmHg 91%

    Amanhã, 21 Outubro, Domingo

    Tempo Temperatura Precipitação Vento Pressão Humidade
    00:00 +8°C° 0 mm 2 m/s 767 mmHg 92%
    01:00 +8°C° 0 mm 2 m/s 767 mmHg 92%
    02:00 +8°C° 0 mm 2 m/s 767 mmHg 92%
    03:00 +8°C° 0 mm 2 m/s 767 mmHg 93%
    04:00 +8°C° 0 mm 2 m/s 767 mmHg 93%
    05:00 +8°C° 0 mm 2 m/s 767 mmHg 93%
    06:00 +7°C° 0 mm 2 m/s 768 mmHg 93%
    07:00 +7°C° 0 mm 2 m/s 768 mmHg 93%
    08:00 +9°C° 0 mm 2 m/s 768 mmHg 88%
    09:00 +10°C° 0 mm 2 m/s 768 mmHg 82%
    10:00 +13°C° 0 mm 2 m/s 768 mmHg 76%
    11:00 +13°C° 0 mm 2 m/s 768 mmHg 71%
    12:00 +13°C° 0 mm 3 m/s 768 mmHg 67%
    13:00 +14°C° 0 mm 3 m/s 768 mmHg 62%
    14:00 +13°C° 0 mm 3 m/s 768 mmHg 64%
    15:00 +13°C° 0 mm 3 m/s 768 mmHg 66%
    16:00 +12°C° 0 mm 3 m/s 767 mmHg 68%
    17:00 +11°C° 0 mm 3 m/s 767 mmHg 72%
    18:00 +10°C° 0 mm 3 m/s 767 mmHg 76%
    19:00 +9°C° 0 mm 3 m/s 767 mmHg 79%
    20:00 +8°C° 0 mm 4 m/s 767 mmHg 80%
    21:00 +7°C° 0 mm 4 m/s 767 mmHg 81%
    22:00 +7°C° 0 mm 4 m/s 767 mmHg 81%
    23:00 +7°C° 0 mm 4 m/s 767 mmHg 82%

    Depois de amanhã, 22 Outubro, Segunda-feira

    Tempo Temperatura Precipitação Vento Pressão Humidade
    00:00 +7°C° 0 mm 4 m/s 767 mmHg 83%
    01:00 +7°C° 0 mm 5 m/s 766 mmHg 84%
    02:00 +7°C° 0 mm 5 m/s 766 mmHg 85%
    03:00 +6°C° 0 mm 5 m/s 766 mmHg 86%
    04:00 +6°C° 0 mm 5 m/s 765 mmHg 88%
    05:00 +7°C° 0 mm 5 m/s 765 mmHg 87%
    06:00 +7°C° 0 mm 5 m/s 765 mmHg 87%
    07:00 +7°C° 0 mm 5 m/s 765 mmHg 86%
    08:00 +8°C° 0.2 mm 5 m/s 765 mmHg 87%
    09:00 +8°C° 0.2 mm 5 m/s 765 mmHg 88%
    10:00 +8°C° 0.2 mm 5 m/s 765 mmHg 88%
    11:00 +9°C° 0.3 mm 5 m/s 765 mmHg 87%
    12:00 +9°C° 0.3 mm 5 m/s 765 mmHg 86%
    13:00 +9°C° 0.3 mm 5 m/s 766 mmHg 85%
    14:00 +9°C° 0.1 mm 6 m/s 766 mmHg 80%
    15:00 +9°C° 0.1 mm 6 m/s 766 mmHg 76%
    16:00 +9°C° 0.1 mm 6 m/s 766 mmHg 71%
    17:00 +9°C° 0 mm 6 m/s 766 mmHg 72%
    18:00 +8°C° 0 mm 5 m/s 767 mmHg 73%
    19:00 +7°C° 0 mm 5 m/s 767 mmHg 74%
    20:00 +7°C° 0 mm 5 m/s 767 mmHg 75%
    21:00 +6°C° 0 mm 5 m/s 767 mmHg 77%
    22:00 +6°C° 0 mm 4 m/s 767 mmHg 78%
    23:00 +6°C° 0 mm 5 m/s 767 mmHg 79%

    23 Outubro, Terça-feira

    Tempo Temperatura Precipitação Vento Pressão Humidade
    00:00 +6°C° 0 mm 5 m/s 766 mmHg 80%
    01:00 +5°C° 0 mm 6 m/s 766 mmHg 80%
    02:00 +5°C° 0 mm 6 m/s 765 mmHg 81%
    03:00 +5°C° 0 mm 7 m/s 764 mmHg 81%
    04:00 +4°C° 0 mm 7 m/s 763 mmHg 81%
    05:00 +4°C° 0.4 mm 8 m/s 762 mmHg 81%
    06:00 +5°C° 0.4 mm 9 m/s 761 mmHg 82%
    07:00 +5°C° 0.4 mm 10 m/s 760 mmHg 82%
    08:00 +4°C° 0.6 mm 11 m/s 759 mmHg 82%
    09:00 +5°C° 0.6 mm 12 m/s 757 mmHg 81%
    10:00 +5°C° 0.6 mm 12 m/s 756 mmHg 81%
    11:00 +7°C° 1.4 mm 12 m/s 755 mmHg 83%
    12:00 +7°C° 1.4 mm 12 m/s 754 mmHg 84%
    13:00 +8°C° 1.4 mm 12 m/s 752 mmHg 86%
    14:00 +8°C° 2.9 mm 13 m/s 751 mmHg 86%
    15:00 +9°C° 2.9 mm 13 m/s 750 mmHg 87%
    16:00 +9°C° 2.9 mm 13 m/s 748 mmHg 87%
    17:00 +9°C° 1.7 mm 13 m/s 748 mmHg 84%
    18:00 +10°C° 1.7 mm 13 m/s 747 mmHg 81%
    19:00 +10°C° 1.7 mm 14 m/s 747 mmHg 78%
    20:00 +10°C° 0.3 mm 13 m/s 747 mmHg 76%
    21:00 +9°C° 0.3 mm 12 m/s 747 mmHg 73%
    22:00 +9°C° 0.3 mm 12 m/s 748 mmHg 70%
    23:00 +8°C° 0.2 mm 11 m/s 748 mmHg 69%

    24 Outubro, Quarta-feira

    Tempo Temperatura Precipitação Vento Pressão Humidade
    00:00 +7°C° 0.2 mm 11 m/s 749 mmHg 69%
    01:00 +7°C° 0.2 mm 11 m/s 749 mmHg 68%
    02:00 +6°C° 0.2 mm 10 m/s 750 mmHg 66%
    03:00 +6°C° 0.2 mm 10 m/s 750 mmHg 64%
    04:00 +5°C° 0.2 mm 10 m/s 751 mmHg 61%
    05:00 +5°C° 0 mm 9 m/s 752 mmHg 60%
    06:00 +3°C° 0 mm 9 m/s 752 mmHg 58%
    07:00 +3°C° 0 mm 9 m/s 753 mmHg 56%
    08:00 +5°C° 0 mm 9 m/s 753 mmHg 53%
    09:00 +6°C° 0 mm 10 m/s 754 mmHg 49%
    10:00 +6°C° 0 mm 10 m/s 754 mmHg 46%
    11:00 +7°C° 0 mm 10 m/s 754 mmHg 45%
    12:00 +7°C° 0 mm 10 m/s 755 mmHg 44%
    13:00 +7°C° 0 mm 10 m/s 755 mmHg 43%
    14:00 +7°C° 0 mm 10 m/s 755 mmHg 45%
    15:00 +6°C° 0 mm 9 m/s 756 mmHg 47%
    16:00 +6°C° 0 mm 8 m/s 756 mmHg 49%
    17:00 +6°C° 0 mm 8 m/s 757 mmHg 51%
    18:00 +5°C° 0 mm 8 m/s 757 mmHg 53%
    19:00 +5°C° 0 mm 8 m/s 758 mmHg 55%
    20:00 +5°C° 0 mm 7 m/s 758 mmHg 56%
    21:00 +4°C° 0 mm 7 m/s 758 mmHg 57%
    22:00 +4°C° 0 mm 6 m/s 758 mmHg 58%
    23:00 +4°C° 0 mm 6 m/s 758 mmHg 60%

    25 Outubro, Quinta-feira

    Tempo Temperatura Precipitação Vento Pressão Humidade
    00:00 +5°C° 0 mm 5 m/s 758 mmHg 62%
    01:00 +5°C° 0 mm 5 m/s 758 mmHg 63%
    02:00 +5°C° 0 mm 5 m/s 758 mmHg 67%
    03:00 +5°C° 0 mm 5 m/s 757 mmHg 71%
    04:00 +4°C° 0 mm 6 m/s 757 mmHg 74%
    05:00 +5°C° 0.3 mm 6 m/s 756 mmHg 80%
    06:00 +6°C° 0.3 mm 7 m/s 755 mmHg 85%
    07:00 +6°C° 0.3 mm 7 m/s 754 mmHg 90%
    08:00 +9°C° 0.2 mm 8 m/s 754 mmHg 86%
    09:00 +10°C° 0.2 mm 9 m/s 753 mmHg 82%
    10:00 +11°C° 0.2 mm 10 m/s 753 mmHg 78%
    11:00 +9°C° 0.1 mm 10 m/s 752 mmHg 79%
    12:00 +9°C° 0.1 mm 10 m/s 752 mmHg 80%
    13:00 +9°C° 0.1 mm 10 m/s 752 mmHg 81%
    14:00 +9°C° 0.1 mm 11 m/s 751 mmHg 80%
    15:00 +9°C° 0.1 mm 11 m/s 751 mmHg 79%
    16:00 +11°C° 0.1 mm 11 m/s 751 mmHg 78%
    17:00 +11°C° 0.2 mm 11 m/s 751 mmHg 77%
    18:00 +11°C° 0.2 mm 11 m/s 751 mmHg 76%
    19:00 +11°C° 0.2 mm 11 m/s 751 mmHg 75%
    20:00 +9°C° 0.1 mm 10 m/s 751 mmHg 74%
    21:00 +9°C° 0.1 mm 10 m/s 751 mmHg 72%
    22:00 +8°C° 0.1 mm 9 m/s 752 mmHg 70%
    23:00 +9°C° 0 mm 8 m/s 752 mmHg 72%
    Mostrar mais